Tracking 33200 objects as of 17-Feb-2026
HD Live streaming from Space Station
objects crossing your sky now

STARLINK-2034

Track STARLINK-2034 now!
10-day predictions
STARLINK-2034 is classified as:


NORAD ID: 47352
Int'l Code: 2021-005D
Perigee: 481.4 km
Apogee: 483.3 km
Inclination: 53.2 °
Period: 94.1 minutes
Semi major axis: 6853 km
RCS: Unknown
Launch date: January 20, 2021
Source: United States (US)
Launch site: AIR FORCE EASTERN TEST RANGE (AFETR)
Your satellite tracking list
Your tracking list is empty




NASA's NSSDC Master Catalog

Two Line Element Set (TLE):
1 47352U 21005D   26047.59776870  .00005047  00000-0  18242-3 0  9993
2 47352  53.1613 150.7123 0001346  99.8247 260.2906 15.30198937279946
Source of the keplerian elements: AFSPC